Ravenna, OH

1:31 AM EDT on April 25, 2018 (GMT -0400)
Ravenna

Weather History for KPOV - March, 2013

Change the Weather History Date:

Friday, March 1, 2013

  Actual Average (KCAK) Record (KCAK)
Temperature  
Mean Temperature 27 °F -  
Max Temperature 29 °F 42 °F 66 °F (1972)
Min Temperature 25 °F 24 °F 2 °F (1980)
Degree Days  
Heating Degree Days 38    
Moisture  
Dew Point 23 °F    
Average Humidity 83    
Maximum Humidity 100    
Minimum Humidity 71    
Precipitation  
Precipitation 0.00 in - - ()
Sea Level Pressure  
Sea Level Pressure 29.92 in    
Wind  
Wind Speed 9 mph (NW)    
Max Wind Speed 13 mph    
Max Gust Speed 18 mph    
Visibility 8 miles    
Events Rain , Snow    
Averages and records for this station are not official NWS values.
T = Trace of Precipitation, MM = Missing Value Source: NWS Daily Summary

Daily Weather History Graph

Daily Weather History Graph

Search for Another Location

Airport or City:

Astronomy

Mar. 01, 2013 Rise Set
Actual Time 6:58 AM EST 6:16 PM EST
Civil Twilight 6:31 AM EST 6:43 PM EST
Nautical Twilight 5:59 AM EST 7:15 PM EST
Astronomical Twilight 5:27 AM EST 7:47 PM EST
Moon 10:51 PM EST (3/1) 8:41 AM EST (3/1)
Length of Visible Light 12h 12m
Length of Day
11h 17m
Waning Gibbous, 83% of the Moon is Illuminated
Mar 1
Waning Gibbous
Mar 4
Last Quarter
Mar 11
New
Mar 19
First Quarter
Mar 27
Full

Hourly Weather History & Observations

Time (EST) Temp. Windchill Dew Point Humidity Pressure Visibility Wind Dir Wind Speed Gust Speed Precip Events Conditions
12:16 AM 29.7 °F 20.7 °F 29.8 °F 100% 29.83 in 5.0 mi NW 10.4 mph 18.4 mph N/A Snow Light Snow
12:35 AM 29.5 °F 21.1 °F 27.3 °F 92% 29.84 in 10.0 mi NW 9.2 mph - N/A   Overcast
12:56 AM 29.3 °F 19.6 °F 26.6 °F 90% 29.84 in 10.0 mi NW 11.5 mph - N/A   Overcast
1:16 AM 29.5 °F 21.1 °F 26.6 °F 89% 29.84 in 10.0 mi NW 9.2 mph 18.4 mph N/A Rain Light Freezing Rain
1:35 AM 29.3 °F 20.2 °F 26.4 °F 89% 29.85 in 10.0 mi NW 10.4 mph - N/A   Overcast
1:56 AM 29.3 °F 22.3 °F 27.9 °F 94% 29.85 in 3.0 mi NW 6.9 mph - N/A Snow Light Snow
2:16 AM 29.3 °F 20.8 °F 29.3 °F 100% 29.85 in 7.0 mi NW 9.2 mph - N/A   Overcast
2:35 AM 29.3 °F 21.5 °F 27.3 °F 92% 29.85 in 10.0 mi NW 8.1 mph - N/A   Overcast
2:56 AM 29.3 °F 22.3 °F 28.2 °F 96% 29.85 in 7.0 mi NW 6.9 mph - N/A Snow Snow
3:16 AM 29.3 °F 23.2 °F 27.9 °F 94% 29.85 in 7.0 mi NW 5.8 mph - N/A Snow Light Snow
3:35 AM 29.1 °F 20.6 °F 28.2 °F 96% 29.85 in 4.0 mi NW 9.2 mph 18.4 mph N/A Snow Light Snow
3:56 AM 28.9 °F 19.8 °F 26.8 °F 92% 29.85 in 7.0 mi NNW 10.4 mph - N/A   Overcast
4:16 AM 28.8 °F 19.5 °F 26.6 °F 92% 29.85 in 7.0 mi NW 10.4 mph - N/A Snow Light Snow
4:35 AM 28.6 °F 19.9 °F 26.1 °F 90% 29.85 in 7.0 mi NNW 9.2 mph - N/A Snow Light Snow
4:56 AM 28.4 °F 20.4 °F 25.7 °F 90% 29.86 in 10.0 mi NNW 8.1 mph - N/A   Overcast
5:16 AM 28.4 °F 18.0 °F 24.4 °F 85% 29.87 in 10.0 mi North 12.7 mph 18.4 mph N/A   Overcast
5:35 AM 27.9 °F 20.6 °F 22.8 °F 81% 29.87 in 10.0 mi NNW 6.9 mph - N/A   Overcast
5:56 AM 27.5 °F 17.4 °F 21.9 °F 80% 29.87 in 10.0 mi NNW 11.5 mph - N/A   Light Freezing Rain
6:16 AM 27.1 °F 16.9 °F 20.8 °F 77% 29.87 in 10.0 mi NNW 11.5 mph 18.4 mph N/A   Overcast
6:33 AM 27.0 °F 18.0 °F 19.9 °F 75% 29.88 in 10.0 mi NNW 9.2 mph 18.4 mph N/A   Overcast
6:52 AM 26.6 °F 18.2 °F 20.7 °F 78% 29.89 in 10.0 mi NNW 8.1 mph 11.5 mph N/A   Overcast
7:08 AM 26.6 °F 19.1 °F 21.0 °F 79% 29.89 in 10.0 mi NNW 6.9 mph - N/A   Overcast
7:35 AM 26.6 °F 19.1 °F 21.2 °F 80% 29.89 in 10.0 mi NW 6.9 mph - N/A   Overcast
7:56 AM 26.6 °F 19.1 °F 21.2 °F 80% 29.90 in 7.0 mi NW 6.9 mph - N/A   Overcast
8:16 AM 26.2 °F 16.4 °F 20.3 °F 78% 29.91 in 10.0 mi NW 10.4 mph - N/A Snow Light Snow
8:36 AM 26.2 °F 18.6 °F 21.2 °F 81% 29.92 in 5.0 mi NW 6.9 mph - N/A Snow Light Snow
8:55 AM 26.1 °F 19.4 °F 21.6 °F 83% 29.92 in 3.0 mi NW 5.8 mph - N/A Snow Light Snow
9:16 AM 26.2 °F 20.7 °F 22.3 °F 85% 29.92 in 1.8 mi NW 4.6 mph - N/A Snow Light Snow
9:36 AM 26.4 °F 18.0 °F 22.6 °F 86% 29.93 in 1.8 mi NW 8.1 mph - N/A Snow Light Snow
9:55 AM 26.6 °F 20.0 °F 22.1 °F 83% 29.93 in 2.5 mi NW 5.8 mph - N/A Snow Light Snow
10:16 AM 26.6 °F 18.2 °F 22.1 °F 83% 29.93 in 1.8 mi NNW 8.1 mph - N/A Snow Light Snow
10:36 AM 26.6 °F 17.5 °F 21.2 °F 80% 29.94 in 4.0 mi NW 9.2 mph - N/A Snow Light Snow
10:55 AM 26.4 °F 18.0 °F 21.4 °F 81% 29.94 in 4.0 mi NW 8.1 mph - N/A Snow Light Snow
11:16 AM 26.2 °F 18.6 °F 22.3 °F 85% 29.94 in 1.8 mi NW 6.9 mph - N/A Snow Light Snow
11:35 AM 26.6 °F 19.1 °F 21.2 °F 80% 29.95 in 7.0 mi NW 6.9 mph - N/A   Overcast
11:56 AM 26.6 °F 17.5 °F 21.4 °F 81% 29.95 in 5.0 mi NW 9.2 mph - N/A   Haze
12:16 PM 27.0 °F 18.7 °F 21.6 °F 80% 29.95 in 7.0 mi NNW 8.1 mph - N/A   Overcast
12:36 PM 27.3 °F 22.0 °F 21.7 °F 80% 29.95 in 7.0 mi NW 4.6 mph - N/A Snow Light Snow
12:55 PM 27.7 °F 18.2 °F 21.2 °F 77% 29.94 in 10.0 mi NNW 10.4 mph - N/A   Overcast
1:16 PM 28.0 °F 18.6 °F 20.3 °F 73% 29.94 in 10.0 mi NW 10.4 mph 16.1 mph N/A   Overcast
1:36 PM 28.2 °F 21.0 °F 21.2 °F 75% 29.94 in 10.0 mi NW 6.9 mph - N/A   Overcast
1:55 PM 28.2 °F 21.0 °F 21.4 °F 76% 29.93 in 10.0 mi NW 6.9 mph - N/A   Overcast
2:16 PM 28.0 °F 20.0 °F 21.2 °F 76% 29.93 in 10.0 mi NW 8.1 mph - N/A   Overcast
2:36 PM 28.6 °F 21.5 °F 21.4 °F 74% 29.92 in 10.0 mi NW 6.9 mph - N/A Snow Light Snow
2:48 PM 28.8 °F 20.9 °F 21.7 °F 75% 29.93 in 10.0 mi North 8.1 mph - N/A   Overcast
3:16 PM 28.9 °F 20.4 °F 21.9 °F 75% 29.93 in 10.0 mi NNW 9.2 mph - N/A   Overcast
3:36 PM 29.1 °F 20.0 °F 21.6 °F 73% 29.93 in 10.0 mi NW 10.4 mph 16.1 mph N/A   Overcast
3:55 PM 28.4 °F 20.4 °F 21.2 °F 74% 29.93 in 10.0 mi NNW 8.1 mph - N/A   Overcast
4:16 PM 28.4 °F 19.7 °F 21.0 °F 74% 29.94 in 10.0 mi NW 9.2 mph - N/A   Overcast
4:36 PM 28.0 °F 19.3 °F 19.8 °F 71% 29.94 in 10.0 mi NW 9.2 mph - N/A   Overcast
4:55 PM 27.5 °F 19.3 °F 21.0 °F 77% 29.94 in 10.0 mi NW 8.1 mph - N/A   Overcast
5:16 PM 27.3 °F 22.0 °F 21.7 °F 80% 29.94 in 10.0 mi NW 4.6 mph - N/A   Overcast
5:36 PM 27.0 °F 19.5 °F 21.9 °F 81% 29.95 in 5.0 mi NW 6.9 mph - N/A Snow Light Snow
5:55 PM 26.6 °F 19.1 °F 21.6 °F 81% 29.95 in 10.0 mi NNW 6.9 mph - N/A   Overcast
6:16 PM 26.6 °F 18.2 °F 21.4 °F 81% 29.95 in 10.0 mi NW 8.1 mph - N/A   Overcast
6:35 PM 26.4 °F 19.8 °F 21.9 °F 83% 29.96 in 10.0 mi NNW 5.8 mph - N/A   Overcast
6:56 PM 26.4 °F 19.8 °F 21.7 °F 82% 29.96 in 10.0 mi NNW 5.8 mph - N/A   Overcast
7:16 PM 26.2 °F 18.6 °F 21.9 °F 84% 29.96 in 10.0 mi NW 6.9 mph - N/A   Overcast
7:36 PM 26.2 °F 19.6 °F 22.1 °F 84% 29.96 in 10.0 mi NNW 5.8 mph - N/A   Overcast
7:55 PM 26.2 °F 16.4 °F 22.1 °F 84% 29.97 in 10.0 mi NNW 10.4 mph - N/A   Overcast
8:16 PM 26.2 °F 18.6 °F 21.9 °F 84% 29.97 in 10.0 mi North 6.9 mph - N/A   Overcast
8:36 PM 26.1 °F 18.4 °F 21.2 °F 82% 29.97 in 10.0 mi NNW 6.9 mph - N/A   Overcast
8:55 PM 25.9 °F 18.2 °F 21.7 °F 84% 29.97 in 10.0 mi NNW 6.9 mph - N/A   Overcast
9:16 PM 25.7 °F 20.1 °F 22.1 °F 86% 29.98 in 5.0 mi NW 4.6 mph - N/A Snow Light Snow
9:35 PM 25.7 °F 17.1 °F 23.0 °F 89% 29.98 in 4.0 mi NW 8.1 mph - N/A Snow Light Snow
9:56 PM 25.7 °F 17.1 °F 22.6 °F 88% 29.97 in 7.0 mi NW 8.1 mph - N/A Snow Light Snow
10:16 PM 25.5 °F 19.9 °F 21.9 °F 86% 29.97 in 10.0 mi NW 4.6 mph - N/A   Overcast
10:35 PM 25.7 °F 17.1 °F 22.1 °F 86% 29.97 in 10.0 mi NW 8.1 mph - N/A   Overcast
10:56 PM 25.7 °F 20.1 °F 22.1 °F 86% 29.97 in 10.0 mi NW 4.6 mph - N/A   Overcast
11:16 PM 25.5 °F 16.9 °F 22.1 °F 87% 29.97 in 10.0 mi NNW 8.1 mph - N/A   Overcast
11:35 PM 25.5 °F 17.8 °F 22.1 °F 87% 29.97 in 10.0 mi NW 6.9 mph - N/A   Overcast
11:56 PM 25.5 °F 16.9 °F 21.6 °F 85% 29.96 in 10.0 mi NNW 8.1 mph - N/A   Overcast